Location: Corbeil-Cerf
(49.2808°N, 2.1028°E)
Time: 00:29:31
(UTC+00:00)

Daily predictions for brighter satellites

Satellite Brightness Start Highest point End
(mag) Time Altitude Azimuth Time Altitude Azimuth Time Altitude Azimuth
Cosmos 1943 Rocket 4.5 03:12:50 19° NE 03:12:50 19° NE 03:14:34 10° NE
CENTAUR R/B 3.2 03:44:24 52° NE 03:44:24 52° NE 03:49:49 10° NE
NOSS 3-2 (A) 4.1 04:04:15 48° NNE 04:04:15 48° NNE 04:09:07 10° NE
NOSS 3-2 (C) 3.5 04:12:49 70° NE 04:12:49 70° NE 04:18:39 10° NE
Meteor 2-3 Rocket 4.5 04:20:25 43° NNE 04:20:25 43° NNE 04:24:11 10° NNE
BREEZE-M DEB (TANK) 4.0 04:21:03 42° S 04:21:03 42° S 04:29:18 10° SE
Envisat 4.4 04:18:52 10° NNE 04:23:34 36° E 04:28:13 10° SSE
Cosmos 968 Rocket 4.3 04:27:18 40° NNE 04:27:18 40° NNE 04:30:35 10° NNE
Cosmos 2297 Rocket 4.5 04:25:42 12° N 04:28:36 16° NNE 04:32:04 10° ENE
Cosmos 2098 Rocket 3.8 04:32:19 31° SSE 04:34:15 56° E 04:39:29 10° NNE
Cosmos 2369 Rocket 2.2 04:34:16 59° S 04:35:18 77° ESE 04:40:56 10° NNE
Cosmos 2344 3.5 04:34:44 57° WNW 04:35:30 60° NW 04:43:35 10° NE
SL-19 R/B 4.2 04:34:26 10° SSE 04:40:01 88° ENE 04:41:27 53° NNW
USA 238 DEB 3.5 04:39:34 65° WNW 04:40:06 67° NW 04:47:03 10° NE
USA 238 3.5 04:39:39 65° WNW 04:40:12 68° NW 04:47:09 10° NE
Cosmos 1656 Rocket 3.9 04:37:55 25° S 04:41:05 63° ESE 04:46:29 10° NNE
Cosmos 2279 Rocket 4.1 04:35:08 10° N 04:41:20 72° ENE 04:47:31 10° SSE
COSMO-SKYMED 1 3.0 04:38:15 10° SSE 04:42:31 60° ENE 04:42:51 58° NE
H-2A R/B 4.3 04:40:09 10° NNE 04:46:53 13° S 04:47:24 10° S
Meteor 1-31 Rocket 4.3 04:40:41 10° NNE 04:44:19 35° E 04:47:55 10° SSE
USA 215 3.3 04:38:18 10° ESE 04:44:50 76° NNE 04:46:50 48° NW
Cosmos 1943 Rocket 2.9 04:54:24 37° NNW 04:54:24 37° NNW 04:58:28 10° NNE
CZ-2C R/B 2.6 04:48:40 10° SSE 04:54:07 82° ENE 04:57:38 23° NNW
Kosmos-917 4.3 04:57:03 52° NNE 04:57:03 52° NNE 05:01:20 10° NE
Cosmos 1634 Rocket 4.0 04:58:14 38° NW 05:00:27 57° W 05:06:31 10° S
Gblst 52 Del rocket 4.4 04:59:59 52° WNW 05:01:33 75° N 05:08:26 10° ENE
Cosmos 2227 Rocket 4.3 05:00:44 10° N 05:04:45 19° NE 05:08:44 10° E
Cosmos 1862 3.7 05:07:19 49° N 05:07:19 49° N 05:10:17 10° N
SKYMED 3 4.4 05:02:17 10° S 05:06:37 79° WSW 05:07:15 63° NW
Cosmos 1515 Rocket 3.9 05:06:34 17° N 05:09:49 62° ENE 05:14:07 10° SSE
Landsat 5 3.6 05:05:52 10° SSE 05:10:23 87° ENE 05:12:32 31° NNW
ADEOS 4.5 05:07:36 10° NNE 05:12:41 49° E 05:17:44 10° S
SJ 16-02 3.1 05:08:49 10° SSE 05:12:44 33° ESE 05:16:40 10° NE
Tsikada Rocket 4.4 05:16:30 38° WNW 05:16:42 38° WNW 05:22:34 10° N
BREEZE-M DEB (TANK) 2.6 05:16:52 68° W 05:17:17 87° NNW 05:24:18 10° E
Meteor 2-8 Rocket 4.3 05:17:14 10° NNW 05:23:23 73° W 05:29:27 10° S
COSMOS 2487 3.7 05:23:41 21° N 05:25:26 36° ENE 05:28:33 10° SE
CZ-4C R/B 2.5 05:23:17 10° SSE 05:26:25 85° WSW 05:26:27 84° WNW
SJ-12 3.9 05:25:52 10° N 05:29:56 55° WNW 05:33:58 10° SSW
SKYMED 2 3.8 05:26:27 10° S 05:30:38 46° W 05:31:28 40° WNW
MOS 1-B Rocket 4.3 05:25:32 10° SSW 05:31:14 40° W 05:33:52 26° NW
CZ-2C R/B 3.9 05:27:04 10° NNE 05:31:50 50° E 05:36:48 10° S
Cosmos 2278 Rocket 4.2 05:33:39 12° NNW 05:33:39 12° NNW 05:35:12 10° N
Cosmos 2180 Rocket 4.4 05:27:24 10° NNW 05:33:30 64° W 05:39:33 10° S
Cosmos 783 Rocket 4.4 05:31:02 26° NW 05:33:54 62° WSW 05:39:00 10° S
CENTAUR R/B 3.3 05:31:36 29° WNW 05:34:02 38° NNW 05:41:05 10° NE
FALCON 9 DEB 3.6 05:37:32 36° N 05:37:32 36° N 05:40:11 10° ENE
Cosmos 1503 Rocket 4.0 05:34:29 10° SW 05:39:44 63° WNW 05:45:04 10° NNE
CZ-4B R/B 3.7 05:36:19 10° NNE 05:39:46 46° E 05:43:15 10° S
FALCON 9 DEB 3.5 05:40:01 37° N 05:40:04 37° N 05:42:46 10° ENE
FALCON 9 DEB 3.4 05:40:11 38° N 05:40:16 38° N 05:42:58 10° ENE
ATLAS 5 CENTAUR R/B 2.3 05:36:39 10° SSW 05:40:21 47° ESE 05:44:31 10° NE
Meteor 1-27 Rocket 3.7 05:35:07 10° NNW 05:40:47 85° W 05:46:33 10° S
Cosmos 1151 Rocket 4.3 05:42:26 23° WSW 05:42:26 23° WSW 05:44:47 10° SW
H-2A R/B 2.5 05:40:10 10° SSE 05:44:25 63° ENE 05:48:48 10° N
Meteor PRIRODA 4.1 05:41:03 10° NNE 05:44:39 61° ESE 05:48:14 10° S
Cosmos 1777 Rocket 4.2 05:41:53 10° SSW 05:47:05 77° ESE 05:52:21 10° NNE
USA 32 4.4 05:42:56 10° N 05:48:12 69° E 05:53:25 10° SSE
Cosmos 773 Rocket 4.1 05:45:01 20° NW 05:48:25 53° WSW 05:53:25 10° S
Lacrosse 4 Rocket 3.7 05:46:58 10° N 05:50:10 19° NE 05:53:23 10° E
Cosmos 1515 3.9 05:49:20 10° N 05:53:09 73° E 05:56:56 10° SSE
Cosmos 1340 Rocket 2.8 05:51:33 10° S 05:55:30 82° E 05:59:32 10° NNE
SL-27 R/B 3.1 05:54:53 30° WNW 05:55:50 36° WSW 05:59:06 10° S
Okean 3 Rocket 4.2 05:52:04 10° SW 05:56:10 33° WNW 06:00:19 10° N
Cosmos 1766 Rocket 4.4 05:55:24 10° SW 05:59:05 27° WNW 06:02:49 10° N
Envisat 3.5 05:57:57 10° N 06:02:34 35° WNW 06:07:09 10° SW
NOSS 3-2 (C) 4.3 06:00:16 20° WNW 06:03:45 34° NNW 06:10:00 10° NE
ATLAS 3B R/B 3.0 05:57:20 10° SSW 06:03:49 68° SE 06:10:38 10° NE
DMSP B5D2-2 4.1 05:58:44 10° S 06:03:53 62° WSW 06:09:04 10° NNW
FALCON 9 DEB 3.5 06:03:14 27° NW 06:04:16 38° N 06:07:01 10° ENE
Cosmos 158 Rocket 3.9 06:04:40 10° NNW 06:09:47 74° WSW 06:15:01 10° SSE
Meteor 1-25 Rocket 4.5 06:04:57 10° S 06:10:32 74° E 06:16:07 10° NNE
Cosmos 1939 Rocket 2.8 06:09:39 10° NNE 06:13:37 84° ESE 06:17:30 10° SSW
Cosmos 2297 Rocket 2.7 06:08:19 10° NNW 06:13:56 58° ENE 06:19:31 10° SE
FALCON 9 DEB 3.7 06:13:35 20° WNW 06:15:33 42° N 06:18:49 10° ENE
Cosmos 1174 3.0 06:14:17 10° SW 06:17:15 73° NW 06:20:29 10° NE
H-2A R/B 4.2 06:15:06 10° NNW 06:21:57 - WSW 06:17:12 17° NW
Meteor 1-31 Rocket 3.9 06:15:23 10° NNW 06:18:32 23° WNW 06:21:39 10° WSW
COSMO-SKYMED 1 4.1 06:16:18 10° SW 06:19:05 16° W 06:20:04 15° WNW
Cosmos 2369 Rocket 3.2 06:16:09 13° W 06:19:57 25° NW 06:24:32 10° NNE
Cosmos 1607 3.9 06:17:00 11° NW 06:23:06 79° SW 06:29:14 10° SSE
Cosmos 1656 Rocket 4.5 06:20:30 10° WSW 06:25:05 27° NW 06:29:45 10° NNE
CZ-4B R/B 1.3 06:22:14 10° SSE 06:25:32 89° S 06:28:48 10° NNW
SL-4 R/B 4.4 06:23:42 10° SSW 06:26:32 22° SE 06:29:31 10° E
USA 215 3.8 06:22:00 10° SSE 06:28:09 43° SW 06:34:11 11° WNW
Okean 1 3.2 06:24:52 10° NNW 06:28:51 81° W 06:32:47 10° S
Cosmos 1408 Rocket 4.4 06:27:53 10° SW 06:31:31 26° WNW 06:35:10 10° NNW
CZ-2D R/B 3.7 06:29:15 10° NNE 06:33:03 65° ESE 06:36:48 10° S
CZ-2C R/B 4.1 06:31:40 10° SW 06:35:03 17° W 06:38:25 10° NW
Cosmos 2263 Rocket 4.1 06:31:30 10° N 06:35:36 20° NE 06:39:41 10° E
Meteor 1-18 Rocket 4.3 06:30:17 10° NNW 06:36:12 90° SW 06:41:56 10° S
NOAA 12 4.1 06:32:29 10° N 06:37:40 58° WNW 06:42:48 10° SSW
Cosmos 1943 Rocket 4.0 06:35:57 10° NW 06:38:26 13° NNW 06:41:01 10° N
Nadezhda 4 Rocket 4.4 06:32:55 10° SW 06:38:42 41° WNW 06:44:35 10° N
FengYun 1-2 T 4.2 06:33:39 10° N 06:39:07 71° WNW 06:44:34 10° SSW
Cosmos 1743 Rocket 4.1 06:37:10 10° SW 06:41:13 36° WNW 06:45:16 10° N
Cosmos 2228 Rocket 3.5 06:37:06 10° NNW 06:41:23 43° W 06:45:39 10° SSW
Cosmos 724 4.5 06:36:32 10° NW 06:42:29 75° NE 06:48:16 10° SE
Alouette 2 Rocket 4.3 06:42:00 10° NW 06:45:08 25° W 06:48:08 10° SSW
CORIOLIS 4.2 06:39:43 10° NNE 06:45:12 84° WNW 06:50:39 10° SSW
Lacrosse 5 4.4 06:41:46 10° S 06:46:01 27° SE 06:50:16 10° ENE
Meteor 2-4 Rocket 4.0 06:40:36 10° N 06:46:35 82° ENE 06:52:26 10° SSE
Cosmos 1378 4.1 06:44:57 10° N 06:48:36 50° ENE 06:52:13 10° SSE
Cosmos 2227 Rocket 2.4 06:44:07 10° NNW 06:49:48 76° ENE 06:55:26 10° SSE
SJ 16-02 2.1 06:47:25 10° WSW 06:51:19 31° WNW 06:55:14 10° N
ADEOS 4.4 06:47:33 10° N 06:51:58 29° WNW 06:56:22 10° WSW
Cosmos 1666 Rocket 3.7 06:47:52 10° S 06:52:20 87° ESE 06:56:52 10° N
Cosmos 1092 Rocket 4.2 06:50:12 10° SSW 06:56:16 50° WNW 07:02:25 10° N
